Lexington Weather

Lexington, Massachusetts, USA

32°F
11/15/2019 3:03am 
  • Lexington Conditions: Clear
  • Temperature: 32.2°F / 0.1°CWarmer 0.7°F than last hour.
  • Dew Point: 29.3°FIncreased 0.2°Fsince last hour.
  • Relative Humidity: 89%Decreased 2.0% since last hour.
  • Wind: Calm, 10-min avg: Calm, gust: 2 mph
  • Barometer: 30.17 inFalling 0.02  inHg/hr Falling Slowly
  • Visibility: 10 miles
  • Snow Today: 0.0 in
  •   

Regional Weather Roundup
for Boston / Norton, MA

        
000
ASUS41 KBOX 140800
RWRBOX

REGIONAL WEATHER ROUNDUP
NATIONAL WEATHER SERVICE BOSTON/NORTON MA
300 AM EST THU NOV 14 2019

NOTE:  "FAIR" INDICATES FEW OR NO CLOUDS BELOW 12,000 FEET WITH NO 
SIGNIFICANT WEATHER AND/OR OBSTRUCTIONS TO VISIBILITY.

MAZALL-140900-
EASTERN MASSACHUSETTS
  
CITY           SKY/WX    TMP DP  RH WIND       PRES   REMARKS
BOSTON         MOCLDY    24   7  48 NW7       30.47F WCI  16          
BEVERLY        FAIR      18   9  68 CALM      30.46S                  
LAWRENCE       FAIR      17   9  70 CALM      30.48F                  
BEDFORD        FAIR      15  10  80 CALM      30.46F                  
BLUE HILL        N/A     18   5  57 N8        30.41F WCI   8          
NORWOOD        FAIR      17  10  74 CALM      30.47F                  
MARSHFIELD     NOT AVBL                                               
PLYMOUTH       FAIR      20  10  65 NW3       30.46S                  
TAUNTON        FAIR      16  11  80 CALM      30.47S                  
NEW BEDFORD    FAIR      21   7  54 CALM      30.46S                  
$$

MAZALL-140900-
CAPE COD AND THE ISLANDS
  
CITY           SKY/WX    TMP DP  RH WIND       PRES   REMARKS
FALMOUTH       CLEAR     19   9  63 NW6       30.45S WCI  11          
HYANNIS        NOT AVBL                                               
CHATHAM        FAIR      23  18  81 CALM      30.46R                  
PROVINCETOWN   MOCLDY    24  16  71 S3        30.47R                  
NANTUCKET      FAIR      27  19  72 W3        30.45S                  
MARTHAS VNYRD  FAIR      19  13  77 CALM      30.46S                  
$$
 
MAZALL-140900-
CENTRAL AND WESTERN MASSACHUSETTS
  
CITY           SKY/WX    TMP DP  RH WIND       PRES   REMARKS
WORCESTER      FAIR      16   7  67 NW3       30.39F                  
FITCHBURG      FAIR      16   8  71 NW3       30.45F                  
ORANGE         FAIR      16  11  80 CALM      30.43F                  
SPRINGFIELD    FAIR      17  13  83 CALM      30.45S                  
WESTFIELD      FAIR      16  10  77 CALM      30.45F                  
NORTH ADAMS    FAIR      17   9  70 SE3       30.41S                  
PITTSFIELD     FAIR      16   9  74 CALM      30.35F                  
$$
 
RIZALL-140900-
RHODE ISLAND
  
CITY           SKY/WX    TMP DP  RH WIND       PRES   REMARKS
PROVIDENCE     FAIR      20  12  71 W3        30.48S                  
NEWPORT        FAIR      24   7  48 N5        30.46S WCI  18          
BLOCK ISLAND   FAIR      25  15  66 N7        30.47R WCI  17          
SMITHFIELD     FAIR      15   9  76 CALM      30.45S                  
WESTERLY       FAIR      21  12  68 NE3       30.48S                  
$$
 
CTZALL-140900-
CONNECTICUT
  
CITY           SKY/WX    TMP DP  RH WIND       PRES   REMARKS
BRADLEY INTL   FAIR      21  11  65 CALM      30.46S                  
HARTFORD       FAIR      20  14  77 CALM      30.48S                  
BRIDGEPORT     FAIR      24   9  52 N9        30.46F WCI  14          
DANBURY        FAIR      17  11  77 CALM      30.44F                  
GROTON         NOT AVBL                                               
NEW HAVEN      FAIR      22  10  60 N3        30.47S                  
CHESTER        FAIR      19   9  63 CALM      30.44F                  
MERIDEN        FAIR      17  11  77 CALM      30.47S                  
WILLIMANTIC    FAIR      16  11  80 CALM      30.48R                  
OXFORD         FAIR      19   9  65 CALM      30.42F                  
$$

MEZ002-015-021-024-NHZ003-005-008-011-012-014-VTZ005-008-140900-
NORTHERN NEW ENGLAND
  
CITY           SKY/WX    TMP DP  RH WIND       PRES   REMARKS
PORTLAND ME    FAIR      14   8  77 SW5       30.48R WCI   6          
BANGOR ME      FAIR      11   8  88 CALM      30.46R                  
CONCORD NH     FAIR      10   6  84 CALM      30.45S                  
MANCHESTER NH  MOCLDY    17  10  74 CALM      30.44F                  
NASHUA NH      FAIR      13  10  88 CALM      30.47F                  
PORTSMOUTH NH  MOCLDY    16  10  77 NW3       30.46S                  
JAFFREY NH     FAIR      13   9  84 CALM      30.38F                  
KEENE NH       FAIR      12  10  92 CALM      30.44F                  
BURLINGTON VT  CLOUDY    17   8  67 SE7       30.38F WCI   8          
MT. WASHINGTON NOT AVBL                                               
$$

NYZ052-076-140900-
EASTERN NEW YORK
  
CITY           SKY/WX    TMP DP  RH WIND       PRES   REMARKS
ALBANY         CLOUDY    21  12  68 S3        30.43F                  
NEW YORK CITY  MOCLDY    30  11  45 E9        30.44F WCI  22          
$$
 
ANZALL-140900-
MARINE OBSERVATIONS
  
STATION/POSITION TIME  TEMP    WIND        PRES    VSBY  WAVE
                       AIR SEA DIR/SP/G                  HT/PER
                 (UTC) (F)     (DEG/KT/KT) (MB)    (MI)  (FT/S)
BOSTON BUOY      0650   28 52  330/  8/ 10 1030.9          2/ 3
BUZZARDS BAY     0700   27     360/  7/ 10 1032.1R
NANTUCKET SOUND  NOT AVBL
MASS BAY-STELLWA 0704   29 52  350/  8/ 12 1030.9R  1 7/8  2/ 4
ISLE OF SHOALS   0700   25     340/  7/  9 1031.3R
S OF BLOCK IS    0730      58                N/A           2/14
$$

......................KEY.........................
  SKY/WX - SKY CONDITION/PRESENT WEATHER
  TMP    - TEMPERATURE IN FAHRENHEIT
  DWPT   - DEWPOINT IN FAHRENHEIT
  RH     - RELATIVE HUMIDITY IN PERCENT
  WIND   - DIRECTION AND SPEED IN MPH
  PRES   - MEAN SEA LEVEL PRESSURE IN INCHES OF HG
  WCI    - WIND CHILL INDEX
  VSB    - VISIBILITY IN MILES
  HX     - HEAT INDEX
  TC     - TEMPERATURE IN CELSIUS
  VRB    - VARIABLE WIND DIRECTION
  N/A    - NOT AVAILABLE
  
      

Other recent Regional Weather Roundups

Fri Nov 15, 3:00am

Fri Nov 15, 2:10am

Fri Nov 15, 2:00am

Fri Nov 15, 1:10am

Fri Nov 15, 1:00am

Fri Nov 15, 12:10am

Fri Nov 15, 12:00am

Thu Nov 14, 11:10pm

Thu Nov 14, 11:00pm

Thu Nov 14, 10:10pm

Thu Nov 14, 10:00pm

Thu Nov 14, 9:10pm

Thu Nov 14, 9:00pm

Thu Nov 14, 8:10pm

Thu Nov 14, 8:00pm

Thu Nov 14, 7:10pm

Thu Nov 14, 7:00pm

Thu Nov 14, 6:10pm

Thu Nov 14, 6:01pm

Thu Nov 14, 5:10pm

Thu Nov 14, 5:00pm

Thu Nov 14, 4:10pm

Thu Nov 14, 4:00pm

Thu Nov 14, 3:10pm

Thu Nov 14, 3:00pm

Thu Nov 14, 2:10pm

Thu Nov 14, 2:00pm

Thu Nov 14, 1:10pm

Thu Nov 14, 1:00pm

Thu Nov 14, 12:10pm

Thu Nov 14, 12:01pm

Thu Nov 14, 11:10am

Thu Nov 14, 11:00am

Thu Nov 14, 10:10am

Thu Nov 14, 10:01am

Thu Nov 14, 9:10am

Thu Nov 14, 9:00am

Thu Nov 14, 8:10am

Thu Nov 14, 8:00am

Thu Nov 14, 7:10am

Thu Nov 14, 7:00am

Thu Nov 14, 6:10am

Thu Nov 14, 6:00am

Thu Nov 14, 5:10am

Thu Nov 14, 5:00am

Thu Nov 14, 4:10am

Thu Nov 14, 4:00am

Thu Nov 14, 3:10am

Thu Nov 14, 2:10am

Thu Nov 14, 2:00am

Thu Nov 14, 1:10am

Thu Nov 14, 1:00am

Thu Nov 14, 12:10am

Thu Nov 14, 12:00am

Wed Nov 13, 11:10pm

Wed Nov 13, 11:00pm

Wed Nov 13, 10:10pm

Wed Nov 13, 10:00pm

Wed Nov 13, 9:10pm

Wed Nov 13, 9:00pm

Wed Nov 13, 8:10pm

Wed Nov 13, 8:00pm

Wed Nov 13, 7:10pm

Wed Nov 13, 7:00pm

Wed Nov 13, 6:10pm

Wed Nov 13, 6:01pm

Wed Nov 13, 5:10pm

Wed Nov 13, 5:00pm

Wed Nov 13, 4:10pm

Wed Nov 13, 4:00pm

Wed Nov 13, 3:10pm

Wed Nov 13, 3:01pm

Wed Nov 13, 2:10pm

Wed Nov 13, 2:01pm

Wed Nov 13, 1:10pm

Wed Nov 13, 1:00pm

Wed Nov 13, 12:10pm

Wed Nov 13, 12:01pm

Wed Nov 13, 11:10am

Wed Nov 13, 11:00am

Wed Nov 13, 10:10am

Wed Nov 13, 10:00am

Wed Nov 13, 9:10am

Wed Nov 13, 9:00am

Wed Nov 13, 8:10am

Wed Nov 13, 8:00am

Wed Nov 13, 7:10am

Wed Nov 13, 7:00am

Wed Nov 13, 6:10am

Wed Nov 13, 6:00am

Wed Nov 13, 5:10am

Wed Nov 13, 5:00am

Wed Nov 13, 4:10am

Wed Nov 13, 4:00am

Wed Nov 13, 3:10am

Wed Nov 13, 3:00am

Wed Nov 13, 2:10am

Wed Nov 13, 2:00am

Wed Nov 13, 1:10am

Wed Nov 13, 1:00am

Wed Nov 13, 12:10am

Wed Nov 13, 12:00am

Tue Nov 12, 11:10pm

Tue Nov 12, 11:00pm

Tue Nov 12, 10:10pm

Tue Nov 12, 10:00pm

Tue Nov 12, 9:10pm

Tue Nov 12, 9:00pm

Tue Nov 12, 8:10pm

Tue Nov 12, 8:00pm

Tue Nov 12, 7:10pm

Tue Nov 12, 7:01pm

Tue Nov 12, 6:10pm

Tue Nov 12, 6:01pm

Tue Nov 12, 5:10pm

Tue Nov 12, 5:01pm

Tue Nov 12, 4:10pm

Tue Nov 12, 4:01pm

Tue Nov 12, 3:10pm

Tue Nov 12, 3:00pm

Tue Nov 12, 2:10pm

Tue Nov 12, 2:00pm

Tue Nov 12, 1:10pm

Tue Nov 12, 1:00pm

Tue Nov 12, 12:10pm

Tue Nov 12, 12:00pm

Tue Nov 12, 11:10am

Tue Nov 12, 11:00am

Tue Nov 12, 10:10am

Tue Nov 12, 10:01am

Tue Nov 12, 9:10am

Tue Nov 12, 9:00am

Tue Nov 12, 8:10am

Tue Nov 12, 8:00am

Tue Nov 12, 7:10am

Tue Nov 12, 7:00am

Tue Nov 12, 6:10am

Tue Nov 12, 6:00am

Tue Nov 12, 5:10am

Tue Nov 12, 5:01am

Tue Nov 12, 4:10am

Tue Nov 12, 4:00am

Tue Nov 12, 3:10am

Tue Nov 12, 3:01am

Meta data:

ID: ff5a2844-7eb6-43ff-9d93-6dcf9775a4b6
Link: https://api.weather.gov/products/ff5a2844-7eb6-43ff-9d93-6dcf9775a4b6